Hamilton, OH

7:38 AM EDT on April 24, 2017 (GMT -0400)
Butler County Regional

Weather History for KHAO - December, 2012

Change the Weather History Date:

Wednesday, December 12, 2012

  Actual Average (KLUK) Record (KLUK)
Temperature  
Mean Temperature 30 °F -  
Max Temperature 43 °F 46 °F 71 °F (2015)
Min Temperature 17 °F 30 °F 1 °F (1962)
Degree Days  
Heating Degree Days 35    
Moisture  
Dew Point 20 °F    
Average Humidity 76    
Maximum Humidity 92    
Minimum Humidity 45    
Precipitation  
Precipitation 0.00 in - - ()
Sea Level Pressure  
Sea Level Pressure 30.40 in    
Wind  
Wind Speed 0 mph (East)    
Max Wind Speed 5 mph    
Max Gust Speed -    
Visibility 9 miles    
Events      
Averages and records for this station are not official NWS values.
T = Trace of Precipitation, MM = Missing Value Source: NWS Daily Summary

Daily Weather History Graph

Daily Weather History Graph

Search for Another Location

Airport or City:

Trip Planner

Search our weather history database for the weather conditions in past years. The results will help you decide how hot, cold, wet, or windy it might be!

Date:

Astronomy

Dec. 12, 2012 Rise Set
Actual Time 7:49 AM EST 5:15 PM EST
Civil Twilight 7:18 AM EST 5:45 PM EST
Nautical Twilight 6:45 AM EST 6:18 PM EST
Astronomical Twilight 6:12 AM EST 6:51 PM EST
Moon 6:52 AM EST (12/12) 4:51 PM EST (12/12)
Length of Visible Light 10h 26m
Length of Day
9h 26m
Waning Crescent, 1% of the Moon is Illuminated
Dec 12
Waning Crescent
Dec 13
New
Dec 20
First Quarter
Dec 28
Full
Jan 4
Last Quarter

Hourly Weather History & Observations

Time (EST) Temp. Windchill Dew Point Humidity Pressure Visibility Wind Dir Wind Speed Gust Speed Precip Events Conditions
12:53 AM 19.9 °F - 17.1 °F 89% 30.30 in 10.0 mi Calm Calm - N/A   Clear
1:53 AM 19.9 °F - 18.0 °F 92% 30.32 in 8.0 mi Calm Calm - N/A   Clear
2:53 AM 19.0 °F - 15.1 °F 85% 30.32 in 8.0 mi Calm Calm - N/A   Clear
3:53 AM 18.0 °F - 16.0 °F 92% 30.35 in 7.0 mi Calm Calm - N/A   Clear
4:53 AM 18.0 °F - 15.1 °F 88% 30.36 in 8.0 mi Calm Calm - N/A   Clear
5:53 AM 18.0 °F - 15.1 °F 88% 30.37 in 7.0 mi Calm Calm - N/A   Clear
6:53 AM 17.1 °F - 14.0 °F 88% 30.40 in 9.0 mi Calm Calm - N/A   Clear
7:53 AM 17.1 °F - 12.9 °F 84% 30.41 in 6.0 mi Calm Calm - N/A   Clear
8:53 AM 24.1 °F - 21.0 °F 88% 30.42 in 5.0 mi Calm Calm - N/A   Clear
9:53 AM 30.9 °F - 27.0 °F 85% 30.43 in 6.0 mi Calm Calm - N/A   Clear
10:53 AM 35.1 °F - 26.1 °F 70% 30.45 in 8.0 mi Calm Calm - N/A   Clear
11:53 AM 39.0 °F - 26.1 °F 60% 30.44 in 10.0 mi Calm Calm - N/A   Clear
12:53 PM 41.0 °F 39.0 °F 24.1 °F 51% 30.41 in 10.0 mi Variable 3.5 mph - N/A   Clear
1:53 PM 43.0 °F - 24.1 °F 47% 30.40 in 10.0 mi Calm Calm - N/A   Clear
2:53 PM 43.0 °F - 23.0 °F 45% 30.39 in 10.0 mi Calm Calm - N/A   Clear
3:53 PM 43.0 °F 40.3 °F 23.0 °F 45% 30.39 in 10.0 mi East 4.6 mph - N/A   Clear
4:53 PM 39.9 °F - 23.0 °F 51% 30.40 in 10.0 mi Calm Calm - N/A   Clear
5:53 PM 30.9 °F - 21.9 °F 69% 30.40 in 10.0 mi Calm Calm - N/A   Clear
6:53 PM 27.0 °F - 21.9 °F 81% 30.41 in 10.0 mi Calm Calm - N/A   Clear
7:53 PM 25.0 °F - 19.9 °F 81% 30.42 in 10.0 mi Calm Calm - N/A   Clear
8:53 PM 25.0 °F - 19.9 °F 81% 30.43 in 10.0 mi Calm Calm - N/A   Clear
9:53 PM 23.0 °F - 19.0 °F 85% 30.43 in 10.0 mi Calm Calm - N/A   Clear
10:53 PM 21.9 °F - 18.0 °F 85% 30.43 in 10.0 mi Calm Calm - N/A   Clear
11:53 PM 19.9 °F - 17.1 °F 89% 30.43 in 9.0 mi Calm Calm - N/A   Clear